Honolulu, HI

3:47 PM HST on June 22, 2018 (GMT -1000)
Honolulu International

Weather History for PHNL - October, 2017

Change the Weather History Date:

Friday, October 13, 2017

  Actual Average Record
Temperature  
Mean Temperature 83 °F 80 °F  
Max Temperature 87 °F 87 °F 91 °F (1979)
Min Temperature 78 °F 74 °F 65 °F (1962)
Degree Days  
Heating Degree Days 0 0  
Month to date heating degree days 0 0  
Since 1 July heating degree days 0 0  
Cooling Degree Days 18 15  
Month to date cooling degree days 215 204  
Year to date cooling degree days 3776 3683  
Growing Degree Days 32 (Base 50)    
Moisture  
Dew Point 70 °F    
Average Humidity 67    
Maximum Humidity 77    
Minimum Humidity 52    
Precipitation  
Precipitation T in 0.05 in 1.38 in (1965)
Month to date precipitation 0.10 0.61  
Year to date precipitation 16.09 10.21  
Sea Level Pressure  
Sea Level Pressure 29.90 in    
Wind  
Wind Speed 9 mph (ENE)    
Max Wind Speed 21 mph    
Max Gust Speed 26 mph    
Visibility 10 miles    
Events      
T = Trace of Precipitation, MM = Missing Value Source: NWS Daily Summary

Daily Weather History Graph

Daily Weather History Graph

Search for Another Location

Airport or City:

Astronomy

Oct. 13, 2017 Rise Set
Actual Time 6:26 AM HST 6:08 PM HST
Civil Twilight 6:04 AM HST 6:30 PM HST
Nautical Twilight 5:38 AM HST 6:56 PM HST
Astronomical Twilight 5:12 AM HST 7:22 PM HST
Moon 12:51 AM HST (10/13) 2:15 PM HST (10/13)
Length of Visible Light 12h 26m
Length of Day
11h 41m
Waning Crescent, 35% of the Moon is Illuminated
Oct 13
Waning Crescent
Oct 19
New
Oct 27
First Quarter
Nov 3
Full
Nov 10
Last Quarter

Hourly Weather History & Observations

Time (HST) Temp. Heat Index Dew Point Humidity Pressure Visibility Wind Dir Wind Speed Gust Speed Precip Events Conditions
12:53 AM 79.0 °F - 70.0 °F 74% 29.88 in 10.0 mi North 4.6 mph - N/A   Scattered Clouds
1:53 AM 80.1 °F 83.6 °F 71.1 °F 74% 29.87 in 10.0 mi NE 3.5 mph - N/A   Scattered Clouds
2:53 AM 79.0 °F - 71.1 °F 77% 29.87 in 10.0 mi North 6.9 mph - N/A   Mostly Cloudy
3:53 AM 78.1 °F - 70.0 °F 76% 29.85 in 10.0 mi NW 4.6 mph - N/A   Mostly Cloudy
4:53 AM 78.1 °F - 70.0 °F 76% 29.86 in 10.0 mi NNW 4.6 mph - N/A   Mostly Cloudy
5:53 AM 79.0 °F - 71.1 °F 77% 29.86 in 10.0 mi East 15.0 mph - N/A   Scattered Clouds
6:53 AM 79.0 °F - 71.1 °F 77% 29.88 in 10.0 mi NE 16.1 mph - N/A   Mostly Cloudy
7:53 AM 80.1 °F 83.2 °F 70.0 °F 71% 29.91 in 10.0 mi ENE 10.4 mph - N/A   Mostly Cloudy
8:53 AM 82.9 °F 87.0 °F 70.0 °F 65% 29.91 in 10.0 mi NNE 9.2 mph - N/A   Partly Cloudy
9:53 AM 84.9 °F 89.4 °F 70.0 °F 61% 29.93 in 10.0 mi NE 15.0 mph 24.2 mph N/A   Scattered Clouds
10:53 AM 86.0 °F 90.1 °F 69.1 °F 57% 29.93 in 10.0 mi NE 13.8 mph 23.0 mph N/A   Mostly Cloudy
11:53 AM 84.9 °F 88.8 °F 69.1 °F 59% 29.92 in 10.0 mi SE 16.1 mph - 0.00 in   Mostly Cloudy
12:53 PM 84.9 °F 91.4 °F 73.0 °F 67% 29.90 in 10.0 mi SE 16.1 mph 25.3 mph N/A   Mostly Cloudy
1:53 PM 84.9 °F 89.4 °F 70.0 °F 61% 29.88 in 10.0 mi SE 15.0 mph - 0.00 in   Mostly Cloudy
2:53 PM 86.0 °F 90.7 °F 70.0 °F 59% 29.86 in 10.0 mi SE 12.7 mph - N/A   Scattered Clouds
3:53 PM 86.0 °F 90.7 °F 70.0 °F 59% 29.86 in 10.0 mi SE 11.5 mph - N/A   Mostly Cloudy
4:53 PM 84.9 °F 88.8 °F 69.1 °F 59% 29.86 in 10.0 mi ENE 8.1 mph - N/A   Mostly Cloudy
5:53 PM 82.0 °F 85.9 °F 70.0 °F 67% 29.88 in 10.0 mi NNE 9.2 mph - N/A   Mostly Cloudy
6:53 PM 81.0 °F 84.1 °F 69.1 °F 67% 29.91 in 10.0 mi NE 10.4 mph - N/A   Mostly Cloudy
7:53 PM 81.0 °F 84.4 °F 70.0 °F 69% 29.94 in 10.0 mi ENE 6.9 mph - N/A   Mostly Cloudy
8:53 PM 81.0 °F 84.1 °F 69.1 °F 67% 29.95 in 10.0 mi NE 9.2 mph - N/A   Scattered Clouds
9:53 PM 81.0 °F 83.8 °F 68.0 °F 65% 29.97 in 10.0 mi East 12.7 mph - N/A   Scattered Clouds
10:53 PM 80.1 °F 82.9 °F 69.1 °F 69% 29.97 in 10.0 mi East 6.9 mph - N/A   Partly Cloudy
11:53 PM 79.0 °F - 69.1 °F 72% 29.96 in 10.0 mi NE 4.6 mph - N/A   Partly Cloudy